Location: Pianura
(40.8667°N, 14.1833°E)
Time: 12:44:08
(UTC+00:00)

Daily predictions for brighter satellites

Satellite Brightness Start Highest point End
(mag) Time Altitude Azimuth Time Altitude Azimuth Time Altitude Azimuth
Cosmos 2181 Rocket 4.3 15:55:14 10° SSE 16:01:21 50° E 16:07:26 10° NNE
Cosmos 2237 Rocket 3.8 15:59:41 10° WSW 16:04:41 32° WNW 16:09:45 10° N
PSLV R/B 4.1 16:03:14 10° S 16:07:20 81° W 16:11:25 10° NNW
CZ-4B R/B 3.3 16:02:33 10° SE 16:07:40 52° ENE 16:12:48 10° N
Cosmos 1666 Rocket 3.7 16:03:41 10° N 16:08:04 56° E 16:12:26 10° SSE
CZ-3B R/B 3.1 16:05:44 10° SSW 16:09:19 21° SE 16:11:15 10° E
Cosmos 44 3.5 16:04:12 10° NNW 16:09:34 77° ENE 16:14:59 10° SE
H-2A R/B 2.4 16:06:20 10° SSE 16:10:35 80° ENE 16:14:42 10° N
Cosmos 1943 4.3 16:08:27 10° SSE 16:12:54 24° ESE 16:17:22 10° NE
MOS 1-B 4.4 16:07:06 10° SSE 16:12:54 88° WSW 16:18:45 10° NNW
Cosmos 1538 Rocket 4.5 16:11:27 10° S 16:16:30 43° ESE 16:21:34 10° NNE
Cosmos 2369 Rocket 2.9 16:12:04 10° N 16:17:05 31° ENE 16:22:02 10° ESE
NOAA 12 4.2 16:12:04 10° SSE 16:17:18 61° ENE 16:22:32 10° N
CENTAUR R/B 4.0 16:14:43 10° SE 16:17:30 14° ESE 16:20:28 10° ENE
Cosmos 1943 Rocket 2.3 16:13:24 10° NNW 16:18:49 50° ENE 16:24:13 10° SE
ADEOS Rocket 4.1 16:11:12 10° N 16:18:55 67° WNW 16:26:26 10° SSW
H-2A R/B 2.1 16:18:48 10° NNE 16:23:03 83° WNW 16:27:23 10° SSW
NOAA 6 4.4 16:18:56 10° S 16:24:04 70° WSW 16:29:12 10° NNW
Okean O Rocket 1.6 16:19:52 10° SSE 16:24:09 61° ENE 16:28:29 10° N
Cosmos 1782 3.2 16:21:27 10° SSE 16:25:11 42° E 16:28:58 10° NNE
Okean-O 4.2 16:23:47 10° E 16:26:04 14° ENE 16:28:22 10° NNE
Cosmos 1933 3.7 16:26:50 10° SSW 16:30:51 69° W 16:34:55 10° N
ISS -1.5 16:29:40 10° NNW 16:31:24 13° N 16:32:58 11° NNE
Cosmos 1633 Rocket 3.0 16:27:55 10° N 16:32:18 86° E 16:36:38 10° S
Cosmos 2218 Rocket 3.9 16:32:43 10° N 16:38:53 77° E 16:45:03 10° SSE
SKYMED 2 4.2 16:35:12 10° NNE 16:39:11 34° E 16:43:07 10° SSE
Cosmos 2366 rocket 3.9 16:33:40 10° N 16:39:52 75° E 16:45:59 10° SSE
ERS-2 2.4 16:36:36 10° NNE 16:40:08 45° E 16:43:39 10° S
Envisat 4.2 16:35:30 10° S 16:40:22 47° W 16:45:17 10° NNW
Meteor 1-25 Rocket 4.3 16:34:59 10° N 16:40:40 86° W 16:46:24 10° S
Cosmos 489 Rocket 4.4 16:35:20 10° SSW 16:41:31 80° ESE 16:47:46 10° NNE
Lacrosse 5 rocket 3.3 16:45:09 10° WNW 16:47:35 17° NNW 16:50:00 10° NNE
SL-23 DEB 4.4 16:45:25 10° WSW 16:48:53 58° NNW 16:52:39 18° NE
NOSS 3-2 (A) 3.7 16:44:46 10° S 16:49:57 43° ESE 16:54:01 18° NE
FengYun 1-2 T 4.2 16:48:57 10° SSE 16:54:29 90° E 17:00:02 10° NNW
Feng Yun 1-1 Rocket 4.3 16:48:58 10° SSE 16:54:37 61° ENE 17:00:09 10° N
SL-16 R/B 3.7 16:52:43 10° WSW 16:57:48 34° WNW 17:02:56 10° N
CZ-4B R/B 1.4 16:56:29 10° N 16:59:36 73° WNW 17:02:46 10° SSW
BREEZE-M DEB (TANK) 3.5 17:01:34 10° WNW 17:03:16 19° NNW 17:03:26 18° N
SMAP 4.3 16:59:14 10° S 17:03:40 44° W 17:08:07 10° NNW
USA 215 3.4 16:59:21 20° ENE 17:03:54 58° SE 17:10:18 10° SSW
YAOGAN 1 4.0 17:09:19 21° NNE 17:09:19 21° NNE 17:11:08 10° N
Cosmos 1500 3.3 17:04:07 10° N 17:07:51 50° E 17:11:35 10° SSE
USA 238 DEB 3.7 17:02:42 10° SSW 17:09:02 55° ESE 17:13:06 24° NE
USA 238 3.7 17:02:49 10° SSW 17:09:08 55° ESE 17:13:10 24° NE
Cosmos 1656 Rocket 3.9 17:07:19 10° NNW 17:12:45 46° ENE 17:17:20 14° SE
SL-24 DEB 4.1 17:08:52 10° N 17:13:37 79° E 17:18:18 10° S
Cosmos 1470 Rocket 4.2 17:10:31 10° NNW 17:14:46 56° W 17:18:59 10° S
MOS 1 Rocket 3.9 17:13:26 20° NNE 17:16:54 46° E 17:21:59 10° S
Cosmos 158 Rocket 3.8 17:13:32 10° S 17:18:27 65° ESE 17:20:54 29° NNE
Cosmos 1515 Rocket 4.3 17:14:43 10° SSW 17:19:00 54° W 17:23:20 10° N
CZ-2C R/B 3.0 17:14:30 10° SSE 17:19:20 50° ENE 17:24:00 10° N
Cosmos 2263 4.0 17:16:00 10° NNW 17:21:37 72° ENE 17:27:12 10° SSE
Cosmos 923 Rocket 3.9 17:16:38 10° S 17:21:48 73° ESE 17:24:49 25° NNE
Cosmos 1934 Rocket 4.3 17:17:50 10° N 17:23:48 41° ENE 17:29:40 10° SE
USA 281 3.3 17:19:47 10° SE 17:26:04 51° ENE 17:32:23 10° NNW
Cosmos 1238 Rocket 3.1 17:22:49 10° N 17:26:57 59° E 17:31:57 10° SSE
COSMO-SKYMED 1 2.8 17:23:06 11° N 17:27:17 68° WNW 17:31:36 10° SSW
Nadezhda 3 Rocket 3.9 17:21:47 10° S 17:28:08 82° E 17:34:32 10° N
Cosmos 1689 Rocket 2.9 17:29:02 44° SSW 17:29:02 44° SSW 17:31:10 10° SSW
X-37B 1.7 17:26:57 10° WNW 17:29:28 36° NNW 17:29:28 36° NNW
SAR-Lupe-4 4.0 17:29:13 30° N 17:30:49 62° WNW 17:34:21 10° SSW
Meteor 2-6 Rocket 4.1 17:25:44 10° S 17:31:20 85° W 17:36:50 10° N
Cosmos 2228 Rocket 3.1 17:26:59 10° S 17:31:31 86° W 17:34:29 22° N
H-2A R/B 2.5 17:35:18 40° NE 17:35:18 40° NE 17:39:04 10° N
Cosmos 1812 2.8 17:31:36 10° SSW 17:35:25 72° W 17:36:35 42° N
USA 267 3.9 17:34:11 33° NE 17:35:27 36° NNE 17:41:18 10° NW
Cosmos 1939 Rocket 3.8 17:33:12 10° S 17:36:55 46° W 17:40:43 10° NNW
CZ-4 R/B 3.0 17:41:27 24° N 17:41:27 24° N 17:43:08 10° N
Cosmos 1821 Rocket 4.0 17:33:28 10° N 17:39:46 88° W 17:46:07 10° S
Cosmos 2084 3.9 17:36:08 10° SSW 17:39:33 47° SSE 17:39:33 47° SSE
Meteor 1-11 Rocket 3.7 17:37:08 10° N 17:42:54 62° ENE 17:48:45 10° SSE
IRS-1C Rocket 4.4 17:37:52 10° S 17:43:05 65° WSW 17:48:22 10° NNW
BREEZE-M DEB (TANK) 2.6 17:39:57 10° WSW 17:42:53 52° SW 17:42:53 52° SW
PSLV R/B 4.2 17:42:20 39° N 17:43:38 64° WNW 17:47:38 10° SSW
Cosmos 44 Rocket 3.4 17:40:06 10° NNW 17:45:08 62° NE 17:45:08 62° NE
Lacrosse 4 Rocket 2.3 17:44:27 10° SSW 17:46:59 37° S 17:46:59 37° S
Cosmos 1680 Rocket 3.4 17:43:25 10° SSW 17:48:40 86° WNW 17:50:19 46° NNE
CZ-2D R/B 4.5 17:50:11 10° S 17:53:48 41° W 17:57:27 10° NNW
Cosmos 1943 4.1 17:51:10 10° SW 17:56:36 47° WNW 17:59:58 22° N
Cosmos 2369 Rocket 3.5 17:55:56 10° NW 18:01:09 39° WSW 18:06:19 10° S
Okean-O 3.1 17:57:41 10° S 18:02:02 58° W 18:06:26 10° NNW
Cosmos 1461 3.5 17:58:57 10° SW 18:02:44 61° SW 18:02:44 61° SW
CENTAUR R/B 2.3 18:01:05 10° SW 18:06:49 87° WNW 18:07:44 67° NNE
Cosmos 2112 Rocket 4.3 18:04:03 10° SSW 18:09:17 66° WNW 18:09:53 61° NNW
NOSS 3-2 (C) 3.3 18:09:28 10° SW 18:15:00 77° NW 18:15:09 77° NW
Meteor 1-27 Rocket 3.9 18:14:35 10° SSW 18:20:03 67° W 18:20:11 67° WNW
BREEZE-M DEB (TANK) 4.4 18:14:25 10° WSW 18:19:59 38° WNW 18:19:59 38° WNW
USA 215 3.9 18:46:42 46° NNW 18:46:47 46° NNW 18:52:57 10° WSW
